紫金山-アトラス彗星

C/2023 A3 ( Tsuchinshan-ATLAS )

English version
Home page
Updated on May 21, 2024

---------------------------------------------------------------------

・ プロフィール

発見日 2023年1月9日、2月22日
発見光度 18.7等、18.0等
発見者 Purple Mountain Observatory's XuYi Station, Asteroid Terrestrial-Impact Last Alert System (ATLAS) search program

・ 写真集

・ 軌道要素

Epoch 2024 Mar. 31.0 TT = JDT 2460400.5
T 2024 Sept. 27.74602 TT                                Rudenko
q   0.3914525            (2000.0)            P               Q
z  -0.0002762      Peri.  308.49011     +0.36139050     +0.90085375
 +/-0.0000073      Node    21.55983     +0.91855127     -0.29964650
e   1.0001081      Incl.  139.11227     -0.16018884     +0.31412497
>From 2726 observations 2022 Apr. 9-2024 Mar. 18, mean residual 0".3.

・ 星図

・ 光度変化

        m1 = -17.0 + 5 logΔ + 35   log r  [    ,-575]  (              〜2023年 3月 2日)
        m1 =   4.5 + 5 logΔ + 10.0 log r  [-575,    ]  (2023年 3月 2日〜              )

---------------------------------------------------------------------

軌道要素はM.P.E.C. 2024-F34に掲載されたものです。
星図はステラナビゲータ Ver.11 (アストロアーツ) で作成したものです。
光度グラフはComet for Windowsで作成したものです。

---------------------------------------------------------------------

Copyright(C) Seiichi Yoshida (comet@aerith.net). All rights reserved.